Flag for U.S.A. Weather past 2 weeks in Atlanta, Georgia, U.S.A.

Now
80 °F

Scattered clouds.


Feels Like: 80 °F
Forecast: 66 / 81 °F
Wind: 12 mph from Northwest

Location: Fulton County Airport-Brown Field

Current Time: Jul 29, 2014 at 7:21:51 PM

Latest Report: Jul 29, 2014 at 6:53 PM


Visibility: 10 mi

Pressure: 29.96 "Hg

Humidity: 44%

Dew point: 56 °F

Location of AtlantaLocation

Historic Weather in Atlanta — Graph

°F

Atlanta temperature yesterday

Maximum temperature yesterday: 89 °F (at 1:53 PM)
Minimum temperature yesterday: 72 °F (at 10:53 PM)
Average temperature yesterday: 82 °F

Past Weeks' High & Low Weather Summary

 TemperatureHumidityPressure
High92 °F (Jul 27, 3:53 PM)97% (Jul 20, 5:53 AM)30.13 "Hg (Jul 20, 5:53 AM)
Low59 °F (Jul 17, 6:53 AM)33% (Jul 16, 4:53 PM)29.82 "Hg (Jul 15, 6:53 PM)
Average76 °F75%29.99 "Hg
* Reported Jul 14 5:53 PM — Jul 29 5:53 PM, Atlanta, Weather by CustomWeather, © 2014

Note: Actual official high and low records may vary slightly from our data, if they occured in-between our weather recording intervals... More about our weather records

Advertising

Atlanta weather history for previous 24 hours

 ConditionsComfort  
Time TempWeatherWind HumidityBarometerVisibility
5:53 PM
Jul 29
81 °FScattered clouds.8 mph44%29.96 "Hg10 mi
4:53 PM81 °FPassing clouds.9 mph45%29.96 "Hg10 mi
3:53 PM82 °FPassing clouds.10 mph44%29.96 "Hg10 mi
2:53 PM79 °FPartly sunny.10 mph48%29.97 "Hg10 mi
1:53 PM79 °FPassing clouds.6 mph47%29.98 "Hg10 mi
12:53 PM80 °FScattered clouds.12 mph47%30.00 "Hg10 mi
11:53 AM78 °FPassing clouds.12 mph54%30.01 "Hg10 mi
10:53 AM76 °FSunny.6 mph58%30.00 "Hg10 mi
9:53 AM74 °FSunny.3 mph64%29.99 "Hg10 mi
8:53 AM70 °FSunny.5 mph76%29.98 "Hg10 mi
7:53 AM67 °FSunny.3 mph81%29.97 "Hg10 mi
6:53 AM66 °FClear.No wind81%29.96 "Hg10 mi
5:53 AM66 °FClear.No wind81%29.95 "Hg10 mi
4:53 AM67 °FClear.No wind79%29.94 "Hg10 mi
3:53 AM67 °FClear.3 mph79%29.93 "Hg10 mi
2:53 AM68 °FClear.No wind76%29.94 "Hg10 mi
1:53 AM70 °FClear.3 mph71%29.95 "Hg10 mi
12:53 AM70 °FClear.5 mph71%29.95 "Hg10 mi
11:53 PM
Jul 28
72 °FClear.3 mph68%29.95 "Hg10 mi
10:53 PM72 °FClear.6 mph68%29.95 "Hg10 mi
9:53 PM76 °FClear.No wind58%29.93 "Hg10 mi
8:53 PM79 °FSunny.3 mph50%29.92 "Hg10 mi
7:53 PM83 °FPassing clouds.6 mph46%29.90 "Hg10 mi
Weather by CustomWeather, © 2014

See weather overviewHow to use our weather pages